Flag for Canada Weather past 2 weeks in Fredericton, New Brunswick, Canada

Now
70 °F

Overcast.


Feels Like: 70 °F
Forecast: 58 / 69 °F
Wind: 2 mph from North

Location: Fredericton

Current Time: Jul 24, 2014 at 4:11:09 AM

Latest Report: Jul 24, 2014 at 3:01 AM


Visibility: 9 mi

Pressure: 29.72 "Hg

Humidity: 94%

Dew point: 68 °F

Location of FrederictonLocation

Historic Weather in Fredericton — Graph

°F

Fredericton temperature yesterday

Maximum temperature yesterday: 90 °F (at 5:00 PM)
Minimum temperature yesterday: 64 °F (at 5:00 AM)
Average temperature yesterday: 76 °F

Past Weeks' High & Low Weather Summary

 TemperatureHumidityPressure
High90 °F (Jul 23, 5:00 PM)100% (Jul 10, 4:00 AM)30.26 "Hg (Jul 10, 4:00 AM)
Low50 °F (Jul 12, 5:00 AM)35% (Jul 12, 3:00 PM)29.64 "Hg (Jul 23, 5:00 PM)
Average69 °F76%29.97 "Hg
* Reported Jul 9 3:00 AM — Jul 24 2:00 AM, Fredericton, Weather by CustomWeather, © 2014

Note: Actual official high and low records may vary slightly from our data, if they occured in-between our weather recording intervals... More about our weather records

Advertising

Fredericton weather history for previous 24 hours

 ConditionsComfort  
Time TempWeatherWind HumidityBarometerVisibility
2:00 AM
Jul 24
70 °FLight rain. Overcast.No wind94%29.72 "Hg9 mi
1:48 AM70 °FLight rain. Mostly cloudy.No wind94%29.71 "Hg9 mi
1:00 AM70 °FOvercast.5 mph94%29.72 "Hg9 mi
12:00 AM70 °FLight rain. Mostly cloudy.6 mph94%29.71 "Hg9 mi
11:59 PM
Jul 23
70 °FLight rain. Mostly cloudy.6 mph94%29.71 "Hg9 mi
11:00 PM70 °FPartly cloudy.6 mph88%29.71 "Hg9 mi
10:53 PM72 °FPassing clouds.7 mph83%29.71 "Hg9 mi
10:00 PM75 °FLight rain. Partly sunny.16 mph74%29.71 "Hg9 mi
9:47 PM77 °FLight rain. Partly sunny.9 mph79%29.71 "Hg9 mi
9:00 PM77 °FBroken clouds.10 mph74%29.68 "Hg9 mi
8:00 PM81 °FSunny.13 mph66%29.64 "Hg9 mi
7:00 PM82 °FSunny.13 mph66%29.65 "Hg9 mi
6:00 PM86 °FSunny.12 mph59%29.65 "Hg9 mi
5:00 PM90 °FSunny.15 mph49%29.64 "Hg9 mi
4:00 PM88 °FPassing clouds.15 mph52%29.67 "Hg9 mi
3:00 PM88 °FPassing clouds.16 mph52%29.68 "Hg9 mi
2:00 PM88 °FSunny.15 mph52%29.70 "Hg9 mi
1:00 PM86 °FSunny.15 mph52%29.72 "Hg9 mi
12:00 PM84 °FSunny.16 mph55%29.74 "Hg9 mi
11:00 AM79 °FSunny.8 mph70%29.76 "Hg9 mi
10:00 AM73 °FSunny.10 mph74%29.79 "Hg9 mi
7:00 AM64 °FSunny.6 mph88%29.83 "Hg9 mi
6:00 AM64 °FClear.5 mph88%29.83 "Hg9 mi
5:00 AM64 °FClear.9 mph88%29.84 "Hg9 mi
Weather by CustomWeather, © 2014

See weather overviewHow to use our weather pages